Total_Precipitation_Accumulation
1.47 1.39 1.39 1.37 1.33 1.34 1.41 1.58 1.89 1.72 1.17 0.89 0.92 0.97 1.06 1.16 1.19 1.10 1.06 1.27 1.37 1.43 1.52 1.59 1.69 1.86 2.19 2.74 3.38 4.32 4.97 4.66 3.85 3.28 3.23 3.61 4.10 4.60
1.59 1.56 1.43 1.35 1.38 1.42 1.50 1.51 1.61 1.77 1.46 0.89 0.80 0.89 1.04 1.23 1.33 1.12 1.09 1.28 1.33 1.39 1.40 1.42 1.56 1.74 1.94 2.23 2.64 3.25 4.18 4.71 4.52 4.00 3.61 3.74 4.03 4.46
1.57 1.60 1.49 1.39 1.50 1.54 1.61 1.64 1.59 1.63 1.67 1.09 0.85 0.92 1.17 1.32 1.38 1.25 1.21 1.20 1.21 1.34 1.39 1.41 1.45 1.65 1.82 2.00 2.20 2.58 3.25 4.02 4.51 4.57 4.27 4.03 4.07 4.15
1.57 1.59 1.57 1.49 1.50 1.53 1.64 1.64 1.56 1.49 1.60 1.40 1.10 1.09 1.23 1.38 1.43 1.39 1.35 1.30 1.17 1.27 1.35 1.45 1.45 1.58 1.78 1.88 1.99 2.22 2.59 3.13 3.73 4.24 4.41 4.12 3.99 4.02
1.53 1.57 1.60 1.60 1.52 1.46 1.55 1.60 1.53 1.48 1.52 1.56 1.31 1.18 1.28 1.44 1.59 1.63 1.57 1.53 1.37 1.33 1.35 1.45 1.55 1.56 1.68 1.82 1.93 2.06 2.19 2.37 2.79 3.46 4.10 4.19 3.99 3.98
1.44 1.44 1.52 1.65 1.67 1.65 1.65 1.61 1.63 1.72 1.70 1.70 1.53 1.37 1.40 1.53 1.71 1.81 1.84 1.77 1.66 1.48 1.49 1.55 1.63 1.68 1.66 1.67 1.68 1.75 1.89 2.19 2.55 3.02 3.50 3.91 3.96 3.92
1.38 1.29 1.38 1.66 1.88 2.04 2.08 1.91 1.92 2.10 2.07 2.02 1.88 1.67 1.54 1.61 1.75 1.76 1.87 1.83 1.82 1.69 1.59 1.59 1.58 1.55 1.55 1.57 1.60 1.62 1.70 1.92 2.21 2.54 2.95 3.32 3.63 3.82
1.43 1.29 1.31 1.59 1.78 1.96 2.12 2.08 2.08 2.27 2.39 2.32 2.15 1.86 1.52 1.41 1.50 1.75 2.01 2.22 2.21 1.90 1.72 1.74 1.58 1.62 1.57 1.47 1.61 1.68 1.70 1.85 2.06 2.27 2.53 2.83 3.15 3.52
1.35 1.31 1.34 1.44 1.61 1.63 1.80 1.88 1.86 2.01 2.25 2.35 2.32 1.87 1.62 1.52 1.77 2.06 2.11 2.23 2.13 2.02 2.03 2.14 1.81 1.73 1.62 1.62 1.74 1.69 1.75 1.82 1.94 2.09 2.28 2.49 2.74 3.09
1.42 1.33 1.26 1.30 1.45 1.64 1.75 1.74 1.63 1.67 1.88 2.06 2.26 2.06 1.84 1.87 2.22 2.55 2.67 2.66 2.37 2.20 2.16 2.44 2.07 1.83 1.72 1.69 1.78 1.67 1.67 1.74 1.83 1.92 2.06 2.26 2.45 2.72
1.49 1.39 1.26 1.20 1.45 1.67 1.63 1.60 1.51 1.53 1.66 1.88 2.05 2.12 2.14 2.30 2.62 3.08 3.29 3.29 2.99 2.58 2.32 2.39 2.27 2.09 2.08 2.07 2.00 1.88 1.68 1.64 1.70 1.78 1.88 2.01 2.20 2.53
1.51 1.44 1.50 1.45 1.58 1.61 1.49 1.57 1.69 1.55 1.45 1.50 1.57 1.62 1.66 1.81 2.27 2.75 3.17 3.35 3.12 2.98 2.54 2.36 2.35 2.39 2.86 2.64 2.24 1.92 1.74 1.69 1.65 1.66 1.69 1.75 1.92 2.03
1.54 1.52 1.44 1.62 1.64 1.60 1.57 1.53 1.72 1.62 1.49 1.55 1.54 1.47 1.46 1.58 1.77 2.12 2.68 3.17 3.24 2.98 2.56 2.64 2.78 2.45 2.69 2.79 2.49 2.09 1.73 1.62 1.54 1.59 1.62 1.64 1.68 1.70
1.53 1.41 1.38 1.58 1.61 1.64 1.60 1.64 1.70 1.66 1.55 1.58 1.52 1.42 1.42 1.53 1.68 1.89 2.18 2.54 2.74 2.70 2.46 2.68 3.13 2.75 2.50 2.38 2.35 2.27 1.91 1.69 1.52 1.47 1.48 1.72 1.78 1.77
1.67 1.69 1.62 1.69 1.69 1.58 1.55 1.60 1.54 1.45 1.52 1.59 1.49 1.33 1.28 1.39 1.52 1.65 1.77 1.99 2.21 2.31 2.38 2.50 2.80 2.80 2.66 2.46 2.10 1.96 1.96 1.98 1.70 1.53 1.49 1.53 1.56 1.59
1.81 1.78 1.76 1.78 1.72 1.64 1.57 1.44 1.33 1.34 1.45 1.47 1.39 1.28 1.19 1.25 1.39 1.51 1.65 1.77 2.07 2.25 2.31 2.44 2.70 2.97 2.94 2.32 2.04 1.86 1.69 2.00 1.95 1.67 1.56 1.55 1.48 1.37
1.87 1.91 1.83 1.78 1.76 1.62 1.42 1.27 1.23 1.30 1.37 1.29 1.30 1.31 1.28 1.27 1.29 1.35 1.55 1.69 1.93 2.08 2.26 2.50 2.73 2.89 2.97 2.73 2.42 1.96 1.64 1.65 1.73 1.64 1.60 1.68 1.70 1.54
1.96 1.92 1.72 1.51 1.44 1.37 1.29 1.22 1.19 1.19 1.19 1.22 1.28 1.29 1.27 1.28 1.29 1.28 1.42 1.61 1.79 1.88 2.00 2.25 2.59 2.88 3.06 3.11 2.72 2.11 1.75 1.68 1.76 1.71 1.60 1.67 1.85 1.76
1.74 1.56 1.42 1.34 1.28 1.22 1.17 1.14 1.14 1.09 1.10 1.19 1.24 1.24 1.22 1.25 1.29 1.32 1.37 1.50 1.65 1.78 1.91 2.03 2.32 2.71 2.93 3.09 3.10 2.48 2.01 1.82 1.86 2.01 1.87 1.67 1.71 1.79
1.40 1.38 1.34 1.29 1.29 1.30 1.25 1.20 1.14 1.12 1.14 1.16 1.18 1.18 1.21 1.28 1.31 1.28 1.31 1.45 1.56 1.67 1.82 1.96 2.22 2.53 2.76 2.72 2.85 2.81 2.52 2.11 1.94 2.13 2.10 1.87 1.80 1.93
1.27 1.29 1.28 1.29 1.32 1.33 1.27 1.22 1.20 1.15 1.10 1.11 1.09 1.09 1.12 1.22 1.24 1.19 1.24 1.39 1.50 1.59 1.73 1.86 2.04 2.26 2.42 2.48 2.52 2.55 2.68 2.64 2.21 2.10 2.10 2.09 2.04 2.04
1.24 1.27 1.27 1.29 1.34 1.35 1.30 1.24 1.22 1.16 1.10 1.08 1.05 1.03 1.05 1.14 1.20 1.19 1.25 1.34 1.38 1.46 1.60 1.73 1.84 2.04 2.29 2.51 2.49 2.38 2.52 2.69 2.64 2.36 2.15 2.05 2.12 2.24
1.33 1.33 1.32 1.31 1.30 1.31 1.30 1.23 1.19 1.15 1.09 1.08 1.05 1.04 1.06 1.11 1.12 1.18 1.23 1.25 1.29 1.35 1.47 1.68 1.84 2.00 2.22 2.38 2.45 2.33 2.30 2.42 2.45 2.44 2.54 2.25 1.84 1.69